NOAA-18
1 28654U 05018A 10258.82959189 .00000425 00000-0 25900-3 0 04812
2 28654 098.9569 204.8624 0014669 154.9296 205.2587 14.11390285274221
NOAA-19
1 33591U 09005A 10258.83739954 .00000065 00000-0 60370-4 0 06773
2 33591 098.7935 199.0531 0014898 035.3180 324.9002 14.11082894082695
HUBBLE
1 20580U 90037B 10259.53929104 .00000450 00000-0 21596-4 0 6458
2 20580 028.4708 003.4610 0003296 094.9109 265.1874 15.01035155918492
ISS
1 25544U 98067A 10260.02223999 .00008255 00000-0 68924-4 0 9044
2 25544 051.6448 120.7352 0006123 002.1789 157.5240 15.71056674677915
CO-58
1 28895U 05043F 10259.68526459 .00000124 00000-0 35244-4 0 6824
2 28895 097.9991 141.0648 0017780 002.6024 357.5276 14.59932551260332
FALCON
1 30776U 07006E 10259.90585996 .00000814 00000-0 61060-4 0 9163
2 30776 035.4333 207.3925 0001503 278.8000 081.2555 15.03813330193879
MAST
1 31126U 07012K 10259.56622271 .00000162 00000-0 47258-4 0 9642
2 31126 097.9285 296.8151 0093916 302.5944 056.6262 14.53619532181334
CAPE1
1 31130U 07012P 10258.67254007 -.00000026 00000-0 48010-5 0 09857
2 31130 097.9301 293.2008 0101794 314.0671 045.2157 14.52220148180795
COMPASS
1 32787U 08021E 10258.30926576 .00000131 00000-0 23191-4 0 07793
2 32787 097.8842 321.7890 0015922 356.8077 003.3026 14.81962838128849
AAUSAT2
1 32788U 08021F 10258.84358495 .00000088 00000-0 17750-4 0 07696
2 32788 097.8854 322.4647 0015313 356.6649 003.4397 14.82110673128933
DO-64
1 32789U 08021G 10258.70733770 .00000581 00000-0 79266-4 0 7862
2 32789 097.8922 322.9098 0015369 354.2908 005.8098 14.82301957128917
CO-66
1 32791U 08021J 10259.69530258 .00000605 00000-0 83370-4 0 7712
2 32791 097.8857 323.1575 0016256 350.3055 009.7839 14.81737217129004
RS-30
1 32953U 08025A 10259.64559147 .00000010 00000-0 00000 0 0 503
2 32953 082.5066 332.8129 0017509 262.6074 097.3020 12.43007861105108
TACSAT-3
1 35001U 09028A 10258.83331781 .00005555 00000-0 12866-3 0 3831
2 35001 040.4555 029.2772 0022722 322.9498 036.9748 15.42659535 74637
PHARMSAT
1 35002U 09028B 10259.53530501 .00005003 00000-0 11454-3 0 3617
2 35002 040.4700 022.7646 0025314 330.0276 029.9098 15.43097379 74769
HAWKSAT1
1 35003U 09028C 10259.49521105 .00012271 00000-0 23802-3 0 3911
2 35003 040.4601 014.8147 0023425 349.0278 011.0031 15.47113149 74858
CP6
1 35004U 09028D 10258.72445252 .00013923 00000-0 25889-3 0 3861
2 35004 040.4614 017.7457 0022518 349.0670 010.9647 15.48271484 74744
AEROCUB3
1 35005U 09028E 10259.64397097 .00062138 00000-0 78474-3 0 4521
2 35005 040.4690 003.7597 0023554 018.7578 341.4152 15.58272560 74983
CASTOR
1 35694U 09038F 10230.44082147 .07179566 12689-4 99310-4 0 6559
2 35694 051.5930 222.0149 0004218 308.0851 053.0105 16.48877011 61107
METEOR-M
1 35865U 09049A 10259.61740320 .00000176 00000-0 10000-3 0 6624
2 35865 098.7488 312.7189 0003224 094.3781 265.7773 14.21831598 51710
RS-38
1 35869U 09049E 10259.86039289 .00000177 00000-0 10000-3 0 6744
2 35869 098.7477 312.9981 0005454 096.1064 264.0718 14.21988616 51754
